Year,Month,Day,Hour,Minute,Value (Times are PST for temperature in C)
2018,07,16,00,00,19.40
2018,07,16,00,01,19.30
2018,07,16,00,02,19.30
2018,07,16,00,03,19.30
2018,07,16,00,04,19.30
2018,07,16,00,05,19.20
2018,07,16,00,06,19.20
2018,07,16,00,07,19.20
2018,07,16,00,08,19.20
2018,07,16,00,09,19.10
2018,07,16,00,10,19.10
2018,07,16,00,11,19.10
2018,07,16,00,12,19.00
2018,07,16,00,13,19.00
2018,07,16,00,14,18.90
2018,07,16,00,15,18.90
2018,07,16,00,16,18.90
2018,07,16,00,17,18.80
2018,07,16,00,18,18.80
2018,07,16,00,19,18.80
2018,07,16,00,20,18.70
2018,07,16,00,21,18.70
2018,07,16,00,22,18.70
2018,07,16,00,23,18.60
2018,07,16,00,24,18.60
2018,07,16,00,25,18.60
2018,07,16,00,26,18.60
2018,07,16,00,27,18.50
2018,07,16,00,28,18.50
2018,07,16,00,29,18.40
2018,07,16,00,30,18.40
2018,07,16,00,31,18.40
2018,07,16,00,32,18.40
2018,07,16,00,33,18.30
2018,07,16,00,34,18.30
2018,07,16,00,35,18.30
2018,07,16,00,36,18.30
2018,07,16,00,37,18.20
2018,07,16,00,38,18.20
2018,07,16,00,39,18.20
2018,07,16,00,40,18.20
2018,07,16,00,41,18.10
2018,07,16,00,42,18.10
2018,07,16,00,43,18.10
2018,07,16,00,44,18.10
2018,07,16,00,45,18.10
2018,07,16,00,46,18.10
2018,07,16,00,47,18.00
2018,07,16,00,48,18.00
2018,07,16,00,49,18.00
2018,07,16,00,50,18.00
2018,07,16,00,51,17.90
2018,07,16,00,52,17.90
2018,07,16,00,53,17.90
2018,07,16,00,54,17.80
2018,07,16,00,55,17.80
2018,07,16,00,56,17.80
2018,07,16,00,57,17.80
2018,07,16,00,58,17.70
2018,07,16,00,59,17.70
2018,07,16,01,00,17.70
2018,07,16,01,01,17.70
2018,07,16,01,02,17.60
2018,07,16,01,03,17.60
2018,07,16,01,04,17.60
2018,07,16,01,05,17.60
2018,07,16,01,06,17.60
2018,07,16,01,07,17.60
2018,07,16,01,08,17.60
2018,07,16,01,09,17.60
2018,07,16,01,10,17.60
2018,07,16,01,11,17.50
2018,07,16,01,12,17.50
2018,07,16,01,13,17.50
2018,07,16,01,14,17.50
2018,07,16,01,15,17.40
2018,07,16,01,16,17.40
2018,07,16,01,17,17.40
2018,07,16,01,18,17.40
2018,07,16,01,19,17.40
2018,07,16,01,20,17.40
2018,07,16,01,21,17.30
2018,07,16,01,22,17.30
2018,07,16,01,23,17.30
2018,07,16,01,24,17.30
2018,07,16,01,25,17.20
2018,07,16,01,26,17.20
2018,07,16,01,27,17.20
2018,07,16,01,28,17.20
2018,07,16,01,29,17.20
2018,07,16,01,30,17.20
2018,07,16,01,31,17.20
2018,07,16,01,32,17.20
2018,07,16,01,33,17.10
2018,07,16,01,34,17.10
2018,07,16,01,35,17.10
2018,07,16,01,36,17.10
2018,07,16,01,37,17.00
2018,07,16,01,38,17.00
2018,07,16,01,39,17.00
2018,07,16,01,40,17.00
2018,07,16,01,41,16.90
2018,07,16,01,42,16.90
2018,07,16,01,43,16.90
2018,07,16,01,44,16.90
2018,07,16,01,45,16.90
2018,07,16,01,46,16.90
2018,07,16,01,47,16.90
2018,07,16,01,48,16.90
2018,07,16,01,49,16.90
2018,07,16,01,50,16.80
2018,07,16,01,51,16.80
2018,07,16,01,52,16.80
2018,07,16,01,53,16.80
2018,07,16,01,54,16.80
2018,07,16,01,55,16.80
2018,07,16,01,56,16.80
2018,07,16,01,57,16.80
2018,07,16,01,58,16.70
2018,07,16,01,59,16.70
2018,07,16,02,00,16.70
2018,07,16,02,01,16.70
2018,07,16,02,02,16.70
2018,07,16,02,03,16.70
2018,07,16,02,04,16.60
2018,07,16,02,05,16.60
2018,07,16,02,06,16.60
2018,07,16,02,07,16.60
2018,07,16,02,08,16.50
2018,07,16,02,09,16.50
2018,07,16,02,10,16.40
2018,07,16,02,11,16.40
2018,07,16,02,12,16.40
2018,07,16,02,13,16.30
2018,07,16,02,14,16.30
2018,07,16,02,15,16.30
2018,07,16,02,16,16.30
2018,07,16,02,17,16.30
2018,07,16,02,18,16.30
2018,07,16,02,19,16.30
2018,07,16,02,20,16.30
2018,07,16,02,21,16.30
2018,07,16,02,22,16.30
2018,07,16,02,23,16.30
2018,07,16,02,24,16.30
2018,07,16,02,25,16.30
2018,07,16,02,26,16.30
2018,07,16,02,27,16.30
2018,07,16,02,28,16.30
2018,07,16,02,29,16.30
2018,07,16,02,30,16.30
2018,07,16,02,31,16.20
2018,07,16,02,32,16.20
2018,07,16,02,33,16.20
2018,07,16,02,34,16.20
2018,07,16,02,35,16.20
2018,07,16,02,36,16.20
2018,07,16,02,37,16.10
2018,07,16,02,38,16.10
2018,07,16,02,39,16.10
2018,07,16,02,40,16.10
2018,07,16,02,41,16.10
2018,07,16,02,42,16.00
2018,07,16,02,43,16.00
2018,07,16,02,44,16.00
2018,07,16,02,45,16.00
2018,07,16,02,46,16.00
2018,07,16,02,47,16.00
2018,07,16,02,48,16.00
2018,07,16,02,49,16.00
2018,07,16,02,50,16.00
2018,07,16,02,51,16.00
2018,07,16,02,52,16.00
2018,07,16,02,53,16.00
2018,07,16,02,54,16.00
2018,07,16,02,55,15.90
2018,07,16,02,56,15.90
2018,07,16,02,57,15.90
2018,07,16,02,58,15.90
2018,07,16,02,59,15.90
2018,07,16,03,00,15.90
2018,07,16,03,01,15.80
2018,07,16,03,02,15.80
2018,07,16,03,03,15.80
2018,07,16,03,04,15.80
2018,07,16,03,05,15.70
2018,07,16,03,06,15.70
2018,07,16,03,07,15.70
2018,07,16,03,08,15.60
2018,07,16,03,09,15.60
2018,07,16,03,10,15.60
2018,07,16,03,11,15.50
2018,07,16,03,12,15.50
2018,07,16,03,13,15.50
2018,07,16,03,14,15.50
2018,07,16,03,15,15.50
2018,07,16,03,16,15.40
2018,07,16,03,17,15.40
2018,07,16,03,18,15.40
2018,07,16,03,19,15.40
2018,07,16,03,20,15.40
2018,07,16,03,21,15.40
2018,07,16,03,22,15.40
2018,07,16,03,23,15.40
2018,07,16,03,24,15.40
2018,07,16,03,25,15.40
2018,07,16,03,26,15.30
2018,07,16,03,27,15.30
2018,07,16,03,28,15.30
2018,07,16,03,29,15.30
2018,07,16,03,30,15.20
2018,07,16,03,31,15.20
2018,07,16,03,32,15.20
2018,07,16,03,33,15.20
2018,07,16,03,34,15.10
2018,07,16,03,35,15.00
2018,07,16,03,36,15.00
2018,07,16,03,37,15.00
2018,07,16,03,38,15.00
2018,07,16,03,39,15.00
2018,07,16,03,40,15.00
2018,07,16,03,41,15.00
2018,07,16,03,42,15.00
2018,07,16,03,43,15.00
2018,07,16,03,44,15.00
2018,07,16,03,45,15.00
2018,07,16,03,46,15.00
2018,07,16,03,47,15.00
2018,07,16,03,48,15.00
2018,07,16,03,49,15.00
2018,07,16,03,50,15.00
2018,07,16,03,51,14.90
2018,07,16,03,52,14.90
2018,07,16,03,53,14.90
2018,07,16,03,54,14.80
2018,07,16,03,55,14.80
2018,07,16,03,56,14.80
2018,07,16,03,57,14.80
2018,07,16,03,58,14.80
2018,07,16,03,59,14.80
2018,07,16,04,00,14.80
2018,07,16,04,01,14.80
2018,07,16,04,02,14.80
2018,07,16,04,03,14.80
2018,07,16,04,04,14.80
2018,07,16,04,05,14.70
2018,07,16,04,06,14.70
2018,07,16,04,07,14.70
2018,07,16,04,08,14.70
2018,07,16,04,09,14.70
2018,07,16,04,10,14.70
2018,07,16,04,11,14.70
2018,07,16,04,12,14.70
2018,07,16,04,13,14.70
2018,07,16,04,14,14.60
2018,07,16,04,15,14.60
2018,07,16,04,16,14.60
2018,07,16,04,17,14.60
2018,07,16,04,18,14.60
2018,07,16,04,19,14.60
2018,07,16,04,20,14.60
2018,07,16,04,21,14.60
2018,07,16,04,22,14.70
2018,07,16,04,23,14.70
2018,07,16,04,24,14.70
2018,07,16,04,25,14.70
2018,07,16,04,26,14.70
2018,07,16,04,27,14.70
2018,07,16,04,28,14.70
2018,07,16,04,29,14.70
2018,07,16,04,30,14.70
2018,07,16,04,31,14.70
2018,07,16,04,32,14.60
2018,07,16,04,33,14.60
2018,07,16,04,34,14.60
2018,07,16,04,35,14.60
2018,07,16,04,36,14.60
2018,07,16,04,37,14.60
2018,07,16,04,38,14.60
2018,07,16,04,39,14.50
2018,07,16,04,40,14.50
2018,07,16,04,41,14.50
2018,07,16,04,42,14.40
2018,07,16,04,43,14.40
2018,07,16,04,44,14.40
2018,07,16,04,45,14.40
2018,07,16,04,46,14.40
2018,07,16,04,47,14.40
2018,07,16,04,48,14.40
2018,07,16,04,49,14.30
2018,07,16,04,50,14.30
2018,07,16,04,51,14.30
2018,07,16,04,52,14.30
2018,07,16,04,53,14.30
2018,07,16,04,54,14.30
2018,07,16,04,55,14.30
2018,07,16,04,56,14.30
2018,07,16,04,57,14.30
2018,07,16,04,58,14.20
2018,07,16,04,59,14.20
2018,07,16,05,00,14.20
2018,07,16,05,01,14.20
2018,07,16,05,02,14.20
2018,07,16,05,03,14.20
2018,07,16,05,04,14.20
2018,07,16,05,05,14.20
2018,07,16,05,06,14.10
2018,07,16,05,07,14.10
2018,07,16,05,08,14.10
2018,07,16,05,09,14.00
2018,07,16,05,10,14.00
2018,07,16,05,11,14.00
2018,07,16,05,12,13.90
2018,07,16,05,13,13.90
2018,07,16,05,14,13.90
2018,07,16,05,15,13.90
2018,07,16,05,16,13.90
2018,07,16,05,17,13.90
2018,07,16,05,18,13.90
2018,07,16,05,19,13.90
2018,07,16,05,20,13.90
2018,07,16,05,21,13.90
2018,07,16,05,22,13.90
2018,07,16,05,23,13.80
2018,07,16,05,24,13.80
2018,07,16,05,25,13.80
2018,07,16,05,26,13.80
2018,07,16,05,27,13.80
2018,07,16,05,28,13.80
2018,07,16,05,29,13.80
2018,07,16,05,30,13.80
2018,07,16,05,31,13.80
2018,07,16,05,32,13.70
2018,07,16,05,33,13.70
2018,07,16,05,34,13.70
2018,07,16,05,35,13.70
2018,07,16,05,36,13.70
2018,07,16,05,37,13.70
2018,07,16,05,38,13.60
2018,07,16,05,39,13.60
2018,07,16,05,40,13.60
2018,07,16,05,41,13.60
2018,07,16,05,42,13.60
2018,07,16,05,43,13.60
2018,07,16,05,44,13.60
2018,07,16,05,45,13.60
2018,07,16,05,46,13.60
2018,07,16,05,47,13.60
2018,07,16,05,48,13.60
2018,07,16,05,49,13.60
2018,07,16,05,50,13.60
2018,07,16,05,51,13.60
2018,07,16,05,52,13.60
2018,07,16,05,53,13.60
2018,07,16,05,54,13.60
2018,07,16,05,55,13.60
2018,07,16,05,56,13.50
2018,07,16,05,57,13.50
2018,07,16,05,58,13.50
2018,07,16,05,59,13.50
2018,07,16,06,00,13.50
2018,07,16,06,01,13.50
2018,07,16,06,02,13.50
2018,07,16,06,03,13.60
2018,07,16,06,04,13.60
2018,07,16,06,05,13.60
2018,07,16,06,06,13.60
2018,07,16,06,07,13.60
2018,07,16,06,08,13.60
2018,07,16,06,09,13.60
2018,07,16,06,10,13.60
2018,07,16,06,11,13.60
2018,07,16,06,12,13.70
2018,07,16,06,13,13.60
2018,07,16,06,14,13.60
2018,07,16,06,15,13.60
2018,07,16,06,16,13.60
2018,07,16,06,17,13.60
2018,07,16,06,18,13.60
2018,07,16,06,19,13.70
2018,07,16,06,20,13.70
2018,07,16,06,21,13.70
2018,07,16,06,22,13.70
2018,07,16,06,23,13.70
2018,07,16,06,24,13.70
2018,07,16,06,25,13.70
2018,07,16,06,26,13.80
2018,07,16,06,27,13.80
2018,07,16,06,28,13.80
2018,07,16,06,29,13.80
2018,07,16,06,30,13.80
2018,07,16,06,31,13.80
2018,07,16,06,32,13.80
2018,07,16,06,33,13.80
2018,07,16,06,34,13.80
2018,07,16,06,35,13.80
2018,07,16,06,36,13.80
2018,07,16,06,37,13.80
2018,07,16,06,38,13.80
2018,07,16,06,39,13.80
2018,07,16,06,40,13.80
2018,07,16,06,41,13.90
2018,07,16,06,42,13.90
2018,07,16,06,43,14.00
2018,07,16,06,44,14.00
2018,07,16,06,45,14.10
2018,07,16,06,46,14.10
2018,07,16,06,47,14.20
2018,07,16,06,48,14.20
2018,07,16,06,49,14.30
2018,07,16,06,50,14.30
2018,07,16,06,51,14.30
2018,07,16,06,52,14.40
2018,07,16,06,53,14.50
2018,07,16,06,54,14.50
2018,07,16,06,55,14.60
2018,07,16,06,56,14.60
2018,07,16,06,57,14.70
2018,07,16,06,58,14.70
2018,07,16,06,59,14.80
2018,07,16,07,00,14.80
2018,07,16,07,01,14.90
2018,07,16,07,02,14.90
2018,07,16,07,03,15.00
2018,07,16,07,04,15.00
2018,07,16,07,05,15.00
2018,07,16,07,06,15.00
2018,07,16,07,07,15.10
2018,07,16,07,08,15.20
2018,07,16,07,09,15.30
2018,07,16,07,10,15.40
2018,07,16,07,11,15.50
2018,07,16,07,12,15.60
2018,07,16,07,13,15.70
2018,07,16,07,14,15.80
2018,07,16,07,15,15.90
2018,07,16,07,16,16.10
2018,07,16,07,17,16.20
2018,07,16,07,18,16.30
2018,07,16,07,19,16.30
2018,07,16,07,20,16.40
2018,07,16,07,21,16.60
2018,07,16,07,22,16.70
2018,07,16,07,23,16.80
2018,07,16,07,24,16.90
2018,07,16,07,25,16.90
2018,07,16,07,26,17.00
2018,07,16,07,27,17.10
2018,07,16,07,28,17.20
2018,07,16,07,29,17.20
2018,07,16,07,30,17.30
2018,07,16,07,31,17.40
2018,07,16,07,32,17.50
2018,07,16,07,33,17.60
2018,07,16,07,34,17.70
2018,07,16,07,35,17.90
2018,07,16,07,36,18.00
2018,07,16,07,37,18.20
2018,07,16,07,38,18.30
2018,07,16,07,39,18.40
2018,07,16,07,40,18.40
2018,07,16,07,41,18.50
2018,07,16,07,42,18.60
2018,07,16,07,43,18.80
2018,07,16,07,44,18.90
2018,07,16,07,45,19.10
2018,07,16,07,46,19.20
2018,07,16,07,47,19.40
2018,07,16,07,48,19.60
2018,07,16,07,49,19.80
2018,07,16,07,50,19.90
2018,07,16,07,51,20.10
2018,07,16,07,52,20.20
2018,07,16,07,53,20.30
2018,07,16,07,54,20.40
2018,07,16,07,55,20.50
2018,07,16,07,56,20.70
2018,07,16,07,57,20.80
2018,07,16,07,58,21.00
2018,07,16,07,59,21.10
2018,07,16,08,00,21.30
2018,07,16,08,01,21.50
2018,07,16,08,02,21.70
2018,07,16,08,03,21.80
2018,07,16,08,04,22.00
2018,07,16,08,05,22.00
2018,07,16,08,06,22.10
2018,07,16,08,07,22.10
2018,07,16,08,08,22.10
2018,07,16,08,09,22.20
2018,07,16,08,10,22.30
2018,07,16,08,11,22.30
2018,07,16,08,12,22.30
2018,07,16,08,13,22.40
2018,07,16,08,14,22.40
2018,07,16,08,15,22.40
2018,07,16,08,16,22.40
2018,07,16,08,17,22.40
2018,07,16,08,18,22.50
2018,07,16,08,19,22.50
2018,07,16,08,20,22.60
2018,07,16,08,21,22.60
2018,07,16,08,22,22.70
2018,07,16,08,23,22.70
2018,07,16,08,24,22.70
2018,07,16,08,25,22.70
2018,07,16,08,26,22.70
2018,07,16,08,27,22.80
2018,07,16,08,28,22.80
2018,07,16,08,29,22.90
2018,07,16,08,30,23.00
2018,07,16,08,31,23.10
2018,07,16,08,32,23.20
2018,07,16,08,33,23.30
2018,07,16,08,34,23.40
2018,07,16,08,35,23.40
2018,07,16,08,36,23.50
2018,07,16,08,37,23.50
2018,07,16,08,38,23.50
2018,07,16,08,39,23.60
2018,07,16,08,40,23.60
2018,07,16,08,41,23.70
2018,07,16,08,42,23.70
2018,07,16,08,43,23.80
2018,07,16,08,44,23.90
2018,07,16,08,45,24.00
2018,07,16,08,46,24.10
2018,07,16,08,47,24.20
2018,07,16,08,48,24.20
2018,07,16,08,49,24.30
2018,07,16,08,50,24.40
2018,07,16,08,51,24.40
2018,07,16,08,52,24.40
2018,07,16,08,53,24.30
2018,07,16,08,54,24.30
2018,07,16,08,55,24.30
2018,07,16,08,56,24.30
2018,07,16,08,57,24.30
2018,07,16,08,58,24.40
2018,07,16,08,59,24.40
2018,07,16,09,00,24.40
2018,07,16,09,01,24.30
2018,07,16,09,02,24.40
2018,07,16,09,03,24.40
2018,07,16,09,04,24.30
2018,07,16,09,05,24.30
2018,07,16,09,06,24.30
2018,07,16,09,07,24.30
2018,07,16,09,08,24.30
2018,07,16,09,09,24.30
2018,07,16,09,10,24.30
2018,07,16,09,11,24.30
2018,07,16,09,12,24.40
2018,07,16,09,13,24.40
2018,07,16,09,14,24.40
2018,07,16,09,15,24.40
2018,07,16,09,16,24.50
2018,07,16,09,17,24.50
2018,07,16,09,18,24.60
2018,07,16,09,19,24.70
2018,07,16,09,20,24.70
2018,07,16,09,21,24.80
2018,07,16,09,22,24.80
2018,07,16,09,23,24.90
2018,07,16,09,24,24.90
2018,07,16,09,25,24.90
2018,07,16,09,26,25.00
2018,07,16,09,27,24.90
2018,07,16,09,28,24.90
2018,07,16,09,29,24.90
2018,07,16,09,30,24.90
2018,07,16,09,31,24.80
2018,07,16,09,32,24.70
2018,07,16,09,33,24.70
2018,07,16,09,34,24.60
2018,07,16,09,35,24.60
2018,07,16,09,36,24.60
2018,07,16,09,37,24.50
2018,07,16,09,38,24.50
2018,07,16,09,39,24.50
2018,07,16,09,40,24.60
2018,07,16,09,41,24.60
2018,07,16,09,42,24.60
2018,07,16,09,43,24.60
2018,07,16,09,44,24.60
2018,07,16,09,45,24.70
2018,07,16,09,46,24.70
2018,07,16,09,47,24.80
2018,07,16,09,48,24.80
2018,07,16,09,49,24.80
2018,07,16,09,50,24.60
2018,07,16,09,51,24.40
2018,07,16,09,52,24.20
2018,07,16,09,53,24.00
2018,07,16,09,54,23.80
2018,07,16,09,55,23.70
2018,07,16,09,56,23.60
2018,07,16,09,57,23.50
2018,07,16,09,58,23.40
2018,07,16,09,59,23.30
2018,07,16,10,00,23.30
2018,07,16,10,01,23.30
2018,07,16,10,02,23.20
2018,07,16,10,03,23.20
2018,07,16,10,04,23.10
2018,07,16,10,05,23.10
2018,07,16,10,06,23.20
2018,07,16,10,07,23.20
2018,07,16,10,08,23.20
2018,07,16,10,09,23.20
2018,07,16,10,10,23.20
2018,07,16,10,11,23.20
2018,07,16,10,12,23.20
2018,07,16,10,13,23.20
2018,07,16,10,14,23.30
2018,07,16,10,15,23.30
2018,07,16,10,16,23.30
2018,07,16,10,17,23.30
2018,07,16,10,18,23.30
2018,07,16,10,19,23.30
2018,07,16,10,20,23.30
2018,07,16,10,21,23.30
2018,07,16,10,22,23.30
2018,07,16,10,23,23.30
2018,07,16,10,24,23.30
2018,07,16,10,25,23.40
2018,07,16,10,26,23.40
2018,07,16,10,27,23.50
2018,07,16,10,28,23.60
2018,07,16,10,29,23.60
2018,07,16,10,30,23.60
2018,07,16,10,31,23.70
2018,07,16,10,32,23.80
2018,07,16,10,33,23.80
2018,07,16,10,34,23.80
2018,07,16,10,35,23.80
2018,07,16,10,36,23.80
2018,07,16,10,37,23.80
2018,07,16,10,38,23.90
2018,07,16,10,39,24.00
2018,07,16,10,40,24.00
2018,07,16,10,41,24.10
2018,07,16,10,42,24.10
2018,07,16,10,43,24.10
2018,07,16,10,44,24.00
2018,07,16,10,45,24.00
2018,07,16,10,46,24.10
2018,07,16,10,47,24.10
2018,07,16,10,48,24.10
2018,07,16,10,49,24.20
2018,07,16,10,50,24.20
2018,07,16,10,51,24.30
2018,07,16,10,52,24.40
2018,07,16,10,53,24.50
2018,07,16,10,54,24.60
2018,07,16,10,55,24.70
2018,07,16,10,56,24.80
2018,07,16,10,57,24.80
2018,07,16,10,58,24.90
2018,07,16,10,59,24.90
2018,07,16,11,00,24.90
2018,07,16,11,01,24.90
2018,07,16,11,02,24.90
2018,07,16,11,03,24.90
2018,07,16,11,04,25.00
2018,07,16,11,05,25.10
2018,07,16,11,06,25.20
2018,07,16,11,07,25.20
2018,07,16,11,08,25.20
2018,07,16,11,09,25.30
2018,07,16,11,10,25.40
2018,07,16,11,11,25.40
2018,07,16,11,12,25.50
2018,07,16,11,13,25.60
2018,07,16,11,14,25.70
2018,07,16,11,15,25.80
2018,07,16,11,16,25.90
2018,07,16,11,17,25.90
2018,07,16,11,18,25.90
2018,07,16,11,19,25.90
2018,07,16,11,20,26.00
2018,07,16,11,21,26.00
2018,07,16,11,22,26.10
2018,07,16,11,23,26.30
2018,07,16,11,24,26.40
2018,07,16,11,25,26.60
2018,07,16,11,26,26.60
2018,07,16,11,27,26.40
2018,07,16,11,28,26.30
2018,07,16,11,29,26.30
2018,07,16,11,30,26.40
2018,07,16,11,31,26.60
2018,07,16,11,32,26.70
2018,07,16,11,33,26.90
2018,07,16,11,34,26.80
2018,07,16,11,35,26.60
2018,07,16,11,36,26.60
2018,07,16,11,37,26.70
2018,07,16,11,38,26.80
2018,07,16,11,39,26.90
2018,07,16,11,40,27.10
2018,07,16,11,41,27.20
2018,07,16,11,42,27.40
2018,07,16,11,43,27.40
2018,07,16,11,44,27.30
2018,07,16,11,45,27.10
2018,07,16,11,46,26.80
2018,07,16,11,47,26.70
2018,07,16,11,48,26.70
2018,07,16,11,49,26.60
2018,07,16,11,50,26.60
2018,07,16,11,51,26.50
2018,07,16,11,52,26.40
2018,07,16,11,53,26.30
2018,07,16,11,54,26.40
2018,07,16,11,55,26.40
2018,07,16,11,56,26.50
2018,07,16,11,57,26.40
2018,07,16,11,58,26.40
2018,07,16,11,59,26.30
2018,07,16,12,00,26.30
2018,07,16,12,01,26.30
2018,07,16,12,02,26.40
2018,07,16,12,03,26.40
2018,07,16,12,04,26.30
2018,07,16,12,05,26.30
2018,07,16,12,06,26.20
2018,07,16,12,07,26.10
2018,07,16,12,08,26.10
2018,07,16,12,09,26.10
2018,07,16,12,10,26.00
2018,07,16,12,11,25.90
2018,07,16,12,12,25.90
2018,07,16,12,13,25.80
2018,07,16,12,14,25.80
2018,07,16,12,15,25.80
2018,07,16,12,16,25.90
2018,07,16,12,17,25.90
2018,07,16,12,18,26.00
2018,07,16,12,19,26.00
2018,07,16,12,20,26.10
2018,07,16,12,21,26.20
2018,07,16,12,22,26.20
2018,07,16,12,23,26.30
2018,07,16,12,24,26.40
2018,07,16,12,25,26.50
2018,07,16,12,26,26.50
2018,07,16,12,27,26.50
2018,07,16,12,28,26.50
2018,07,16,12,29,26.60
2018,07,16,12,30,26.60
2018,07,16,12,31,26.70
2018,07,16,12,32,26.70
2018,07,16,12,33,26.70
2018,07,16,12,34,26.80
2018,07,16,12,35,26.90
2018,07,16,12,36,27.00
2018,07,16,12,37,27.10
2018,07,16,12,38,27.20
2018,07,16,12,39,27.30
2018,07,16,12,40,27.40
2018,07,16,12,41,27.60
2018,07,16,12,42,27.70
2018,07,16,12,43,27.80
2018,07,16,12,44,27.90
2018,07,16,12,45,27.90
2018,07,16,12,46,28.00
2018,07,16,12,47,28.10
2018,07,16,12,48,28.20
2018,07,16,12,49,28.30
2018,07,16,12,50,28.30
2018,07,16,12,51,28.30
2018,07,16,12,52,28.20
2018,07,16,12,53,28.10
2018,07,16,12,54,28.10
2018,07,16,12,55,28.10
2018,07,16,12,56,28.10
2018,07,16,12,57,28.20
2018,07,16,12,58,28.20
2018,07,16,12,59,28.30
2018,07,16,13,00,28.30
2018,07,16,13,01,28.40
2018,07,16,13,02,28.30
2018,07,16,13,03,28.30
2018,07,16,13,04,28.40
2018,07,16,13,05,28.50
2018,07,16,13,06,28.50
2018,07,16,13,07,28.50
2018,07,16,13,08,28.50
2018,07,16,13,09,28.50
2018,07,16,13,10,28.50
2018,07,16,13,11,28.50
2018,07,16,13,12,28.60
2018,07,16,13,13,28.60
2018,07,16,13,14,28.50
2018,07,16,13,15,28.50
2018,07,16,13,16,28.40
2018,07,16,13,17,28.40
2018,07,16,13,18,28.50
2018,07,16,13,19,28.50
2018,07,16,13,20,28.50
2018,07,16,13,21,28.60
2018,07,16,13,22,28.60
2018,07,16,13,23,28.60
2018,07,16,13,24,28.60
2018,07,16,13,25,28.60
2018,07,16,13,26,28.60
2018,07,16,13,27,28.70
2018,07,16,13,28,28.70
2018,07,16,13,29,28.80
2018,07,16,13,30,28.90
2018,07,16,13,31,29.00
2018,07,16,13,32,29.10
2018,07,16,13,33,29.20
2018,07,16,13,34,29.20
2018,07,16,13,35,29.30
2018,07,16,13,36,29.30
2018,07,16,13,37,29.10
2018,07,16,13,38,28.90
2018,07,16,13,39,28.80
2018,07,16,13,40,28.70
2018,07,16,13,41,28.50
2018,07,16,13,42,28.40
2018,07,16,13,43,28.30
2018,07,16,13,44,28.20
2018,07,16,13,45,28.30
2018,07,16,13,46,28.30
2018,07,16,13,47,28.40
2018,07,16,13,48,28.50
2018,07,16,13,49,28.60
2018,07,16,13,50,28.80
2018,07,16,13,51,28.90
2018,07,16,13,52,29.10
2018,07,16,13,53,29.10
2018,07,16,13,54,29.00
2018,07,16,13,55,28.90
2018,07,16,13,56,29.00
2018,07,16,13,57,29.10
2018,07,16,13,58,29.20
2018,07,16,13,59,29.20
2018,07,16,14,00,29.10
2018,07,16,14,01,29.10
2018,07,16,14,02,29.20
2018,07,16,14,03,29.20
2018,07,16,14,04,29.20
2018,07,16,14,05,29.20
2018,07,16,14,06,29.10
2018,07,16,14,07,29.20
2018,07,16,14,08,29.30
2018,07,16,14,09,29.50
2018,07,16,14,10,29.60
2018,07,16,14,11,29.80
2018,07,16,14,12,30.00
2018,07,16,14,13,30.00
2018,07,16,14,14,30.00
2018,07,16,14,15,30.00
2018,07,16,14,16,29.90
2018,07,16,14,17,29.50
2018,07,16,14,18,29.10
2018,07,16,14,19,28.80
2018,07,16,14,20,28.60
2018,07,16,14,21,28.60
2018,07,16,14,22,28.60
2018,07,16,14,23,28.60
2018,07,16,14,24,28.70
2018,07,16,14,25,28.70
2018,07,16,14,26,28.60
2018,07,16,14,27,28.50
2018,07,16,14,28,28.40
2018,07,16,14,29,28.30
2018,07,16,14,30,28.30
2018,07,16,14,31,28.30
2018,07,16,14,32,28.40
2018,07,16,14,33,28.50
2018,07,16,14,34,28.60
2018,07,16,14,35,28.70
2018,07,16,14,36,28.90
2018,07,16,14,37,29.00
2018,07,16,14,38,29.20
2018,07,16,14,39,29.40
2018,07,16,14,40,29.60
2018,07,16,14,41,29.60
2018,07,16,14,42,29.70
2018,07,16,14,43,29.90
2018,07,16,14,44,30.00
2018,07,16,14,45,30.10
2018,07,16,14,46,30.20
2018,07,16,14,47,30.40
2018,07,16,14,48,30.50
2018,07,16,14,49,30.50
2018,07,16,14,50,30.60
2018,07,16,14,51,30.60
2018,07,16,14,52,30.50
2018,07,16,14,53,30.40
2018,07,16,14,54,30.30
2018,07,16,14,55,30.20
2018,07,16,14,56,30.20
2018,07,16,14,57,30.20
2018,07,16,14,58,30.20
2018,07,16,14,59,30.20
2018,07,16,15,00,30.30
2018,07,16,15,01,30.30
2018,07,16,15,02,30.40
2018,07,16,15,03,30.40
2018,07,16,15,04,30.50
2018,07,16,15,05,30.50
2018,07,16,15,06,30.60
2018,07,16,15,07,30.50
2018,07,16,15,08,30.30
2018,07,16,15,09,30.20
2018,07,16,15,10,30.10
2018,07,16,15,11,30.10
2018,07,16,15,12,30.20
2018,07,16,15,13,30.00
2018,07,16,15,14,29.80
2018,07,16,15,15,29.90
2018,07,16,15,16,30.00
2018,07,16,15,17,30.10
2018,07,16,15,18,30.20
2018,07,16,15,19,30.30
2018,07,16,15,20,30.40
2018,07,16,15,21,30.50
2018,07,16,15,22,30.60
2018,07,16,15,23,30.50
2018,07,16,15,24,30.60
2018,07,16,15,25,30.60
2018,07,16,15,26,30.60
2018,07,16,15,27,30.50
2018,07,16,15,28,30.50
2018,07,16,15,29,30.60
2018,07,16,15,30,30.60
2018,07,16,15,31,30.50
2018,07,16,15,32,30.40
2018,07,16,15,33,30.40
2018,07,16,15,34,30.50
2018,07,16,15,35,30.60
2018,07,16,15,36,30.60
2018,07,16,15,37,30.60
2018,07,16,15,38,30.60
2018,07,16,15,39,30.60
2018,07,16,15,40,30.60
2018,07,16,15,41,30.50
2018,07,16,15,42,30.50
2018,07,16,15,43,30.60
2018,07,16,15,44,30.60
2018,07,16,15,45,30.60
2018,07,16,15,46,30.60
2018,07,16,15,47,30.60
2018,07,16,15,48,30.70
2018,07,16,15,49,30.80
2018,07,16,15,50,30.80
2018,07,16,15,51,30.80
2018,07,16,15,52,30.80
2018,07,16,15,53,30.80
2018,07,16,15,54,30.80
2018,07,16,15,55,30.80
2018,07,16,15,56,30.70
2018,07,16,15,57,30.70
2018,07,16,15,58,30.60
2018,07,16,15,59,30.60
2018,07,16,16,00,30.70
2018,07,16,16,01,30.80
2018,07,16,16,02,30.80
2018,07,16,16,03,30.80
2018,07,16,16,04,30.80
2018,07,16,16,05,30.80
2018,07,16,16,06,30.80
2018,07,16,16,07,30.90
2018,07,16,16,08,30.80
2018,07,16,16,09,30.80
2018,07,16,16,10,30.80
2018,07,16,16,11,30.80
2018,07,16,16,12,30.80
2018,07,16,16,13,30.90
2018,07,16,16,14,30.90
2018,07,16,16,15,30.80
2018,07,16,16,16,30.80
2018,07,16,16,17,30.70
2018,07,16,16,18,30.60
2018,07,16,16,19,30.70
2018,07,16,16,20,30.70
2018,07,16,16,21,30.70
2018,07,16,16,22,30.80
2018,07,16,16,23,30.90
2018,07,16,16,24,31.00
2018,07,16,16,25,31.00
2018,07,16,16,26,31.10
2018,07,16,16,27,31.20
2018,07,16,16,28,31.30
2018,07,16,16,29,31.40
2018,07,16,16,30,31.50
2018,07,16,16,31,31.60
2018,07,16,16,32,31.70
2018,07,16,16,33,31.60
2018,07,16,16,34,31.40
2018,07,16,16,35,31.30
2018,07,16,16,36,31.10
2018,07,16,16,37,31.00
2018,07,16,16,38,30.80
2018,07,16,16,39,30.70
2018,07,16,16,40,30.60
2018,07,16,16,41,30.60
2018,07,16,16,42,30.50
2018,07,16,16,43,30.40
2018,07,16,16,44,30.40
2018,07,16,16,45,30.40
2018,07,16,16,46,30.40
2018,07,16,16,47,30.30
2018,07,16,16,48,30.20
2018,07,16,16,49,30.10
2018,07,16,16,50,30.00
2018,07,16,16,51,29.90
2018,07,16,16,52,29.90
2018,07,16,16,53,29.80
2018,07,16,16,54,29.80
2018,07,16,16,55,29.70
2018,07,16,16,56,29.70
2018,07,16,16,57,29.70
2018,07,16,16,58,29.70
2018,07,16,16,59,29.60
2018,07,16,17,00,29.70
2018,07,16,17,01,29.70
2018,07,16,17,02,29.80
2018,07,16,17,03,29.80
2018,07,16,17,04,29.80
2018,07,16,17,05,29.80
2018,07,16,17,06,29.70
2018,07,16,17,07,29.70
2018,07,16,17,08,29.80
2018,07,16,17,09,29.80
2018,07,16,17,10,29.80
2018,07,16,17,11,29.70
2018,07,16,17,12,29.70
2018,07,16,17,13,29.70
2018,07,16,17,14,29.70
2018,07,16,17,15,29.80
2018,07,16,17,16,29.90
2018,07,16,17,17,29.90
2018,07,16,17,18,30.00
2018,07,16,17,19,30.10